Regional Weather Roundup
Issued by NWS Midland/Odessa, TX

Skip options and go directly to product.
Home | Oldest Version | Next Version | Current Version | All | Text Only | Save Text | Print | Product List | Glossary On

Skip product version selection by date and time.   
754
ASUS44 KMAF 280602
RWRMAF
MIDLAND AREA WEATHER ROUNDUP
NATIONAL WEATHER SERVICE MIDLAND TX
1200 AM CST FRI NOV 28 2014

...IN SOUTHWEST TEXAS AND SOUTHEAST NEW MEXICO...

CITY           SKY/WX    TMP DP  RH WIND       PRES   REMARKS
ALPINE         CLEAR     39  24  53 SW7       30.39F WCI  34
ANDREWS        FAIR      47  30  51 S13       30.27F
ARTESIA        NOT AVBL
BIG SPRING     CLEAR     46  29  52 S10       30.31F
CARLSBAD       CLEAR     38  29  70 S6        30.25F WCI  33
DRYDEN           N/A     46  36  68 NE7       30.32S
FORT STOCKTON  CLEAR     49  33  54 S12       30.30S
GUAD PASS      NOT AVBL
HOBBS          PTCLDY    39  28  65 S9        30.28F WCI  33
MARFA          CLEAR     28  19  69 N6        30.37S WCI  22
MIDLAND AIRPK  CLEAR     50  32  49 S15       30.29F
MIDLAND INTL   CLEAR     49  32  52 S12       30.28F
ODESSA         CLEAR     51  32  48 S17       30.28F
PECOS          CLEAR     35  27  73 W7        30.28F WCI  29
PRESIDIO       FAIR      53  27  36 N10       30.30S
SEMINOLE       CLEAR     44  29  57 SW8       30.28S WCI  39
SNYDER         CLEAR     40  32  71 S8        30.28F WCI  35
WINK           CLEAR     44  29  55 SE8       30.27F WCI  39
$$
...OTHER STATIONS IN TEXAS...

CITY           SKY/WX    TMP DP  RH WIND       PRES   REMARKS
ABILENE        CLEAR     51  31  46 S15       30.28F
AMARILLO       PTCLDY    44  30  57 S16       30.17F WCI  37
AUSTIN         CLEAR     38  36  92 SW3       30.38F
BROWNSVILLE    FOG       53  52  96 CALM      30.37F VSB 1/4
CORPUS CHRISTI PTCLDY    60  56  86 E7        30.37F
DALLAS FTW     CLEAR     42  29  59 S8        30.34F WCI  37
DEL RIO        CLEAR     49  37  63 CALM      30.36S
EL PASO        PTCLDY    46  21  37 CALM      30.29F
HOUSTON INT    CLEAR     44  40  85 CALM      30.40F
LUBBOCK        CLEAR     48  28  46 SW14      30.23F
SAN ANGELO     CLEAR     45  33  63 S3        30.31F
SAN ANTONIO    CLEAR     44  38  79 NW3       30.39F
WACO           CLEAR     36  33  89 SW5       30.37F WCI  32
WICHITA FALLS  NOT AVBL
$$
...OTHER LOCATIONS IN NEW MEXICO...

CITY           SKY/WX    TMP DP  RH WIND       PRES   REMARKS
ALAMAGORDO     CLEAR     41  19  42 SE5       30.31F WCI  38
ALBUQUERQUE    PTCLDY    43  20  39 E3        30.33F
CANNON AFB     CLEAR     41  28  59 W8        30.23F WCI  36
CLOVIS         CLEAR     36  25  64 SW8       30.23S WCI  29
HOLLOMAN AFB   CLEAR     40  21  47 E6        30.30S WCI  35
ROSWELL        PTCLDY    34  27  75 CALM      30.25F
RUIDOSO        CLEAR     45  10  24 W9        30.37F WCI  40
SANTA FE       PTCLDY    29  17  61 N5        30.34F WCI  24
TRUTH OR CONSE CLEAR     43  19  38 W8        30.32S WCI  38
TUCUMCARI      PTCLDY    43  28  55 W8        30.19S WCI  38
$$

USA.gov is the U.S. government's official web portal to all federal, state and local government web resources and services.